Hundvaag 1 weather for Apr 1998
Month no. 130
Obs.
Da.
Temp. Dew Point Precip. Wind
Speed
Wind gusts Cloud cover Press. Humidity Wind dir. Sunny OPT
01.04.1998 6,8   0,0     0          
02.04.1998 3,7   3,0     0       1  
03.04.1998 -0,5   0,0     10       1  
04.04.1998 3,0   0,0     4       1  
05.04.1998 3,3   0,0     0          
06.04.1998 6,0   0,0     0       1  
07.04.1998 5,3   0,0     8       1  
08.04.1998 3,7   0,0     0       1  
09.04.1998 3,8   1,0     0          
10.04.1998 3,1   6,0     0          
11.04.1998 2,3   7,0     0          
12.04.1998 2,1   49,0     0          
13.04.1998 2,7   2,0     0          
14.04.1998 1,6   2,0     0       1  
15.04.1998 2,8   2,0     0       1  
16.04.1998 5,3   1,0     7       1  
17.04.1998 5,0   1,0     0          
18.04.1998 6,7   0,0     0          
19.04.1998 7,0   0,0     3       1  
20.04.1998 4,2   0,0     3       1  
21.04.1998 6,0   0,0     2          
22.04.1998 6,7   0,0     9       1  
23.04.1998 9,1   0,0     10       1  
24.04.1998 11,0   0,0     3          
25.04.1998 8,7   0,0     10          
26.04.1998 6,4   0,0     10          
27.04.1998 4,0   3,0     0       1  
28.04.1998 5,9   0,0     0       1  
29.04.1998 5,6   5,0     0       1  
30.04.1998 3,9   0,0     5       1  
                       
Avrg/Sum 4,8   82,0     2,8       17